パンスターズ彗星

P/2015 M2 ( PanSTARRS )

English version
Home page
Updated on October 9, 2017

---------------------------------------------------------------------

・ プロフィール

発見日 2015年6月28日
発見光度 20.0等
発見者 Pan-STARRS 1 telescope (Haleakala)

・ 写真集

・ 軌道要素

Epoch 2015 Sept. 15.0 TT = JDT 2457280.5
T 2015 Aug. 31.67719 TT                                 MPCW
q   5.9128291            (2000.0)            P               Q
n   0.05099867     Peri.  224.82329     +0.66013249     +0.74795631
a   7.2016187      Node    86.61588     -0.66827344     +0.62685800
e   0.1789583      Incl.    3.97407     -0.34298063     +0.21819808
P  19.33
From 131 observations 2015 June 22-2017 Sept. 30, mean residual 0".5.

・ 光度変化

        m1 = 8.0 + 5 logΔ + 10.0 log r

---------------------------------------------------------------------

軌道要素はM.P.E.C. 2017-T14に掲載されたものです。
光度グラフはComet for Windowsで作成したものです。

---------------------------------------------------------------------

Copyright(C) Seiichi Yoshida (comet@aerith.net). All rights reserved.